Regional Weather Roundup
Issued by NWS

Home | Current Version | Previous Version | Graphics & Text | Print | Product List | Glossary On
Versions: 1 2 3 4 5 6 7 8 9 10 11 12 13 14 15 16 17 18 19 20 21 22 23 24 25 26 27
000
ASUS45 KCYS 181110
RWRWY

WYOMING REGIONAL WEATHER ROUNDUP
NATIONAL WEATHER SERVICE CHEYENNE WY
400 AM MST THU JAN 18 2018

NOTE:  "FAIR" INDICATES FEW OR NO CLOUDS BELOW 12,000 FEET
WITH NO SIGNIFICANT WEATHER AND/OR OBSTRUCTIONS TO VISIBILITY.

WYZ001-181200-
YELLOWSTONE NATIONAL PARK

CITY           SKY/WX    TMP DP  RH WIND       PRES   REMARKS
LK YELLOWSTONE   N/A     19  18  95 CALM      30.24F
W YELLOWSTONE  NOT AVBL

$$
WYZ002>013-054>058-071-098>099-181200-
NORTHERN WYOMING

CITY           SKY/WX    TMP DP  RH WIND       PRES   REMARKS
JACKSON        CLOUDY    10   7  87 E3        30.29R
CODY           FAIR      41  19  41 N10G23    30.03F
GREYBULL       FAIR      10   7  87 SW3       30.09F
WORLAND        FAIR      11   8  88 CALM      30.07F
SHERIDAN       FAIR      28  18  66 CALM      29.91F
BUFFALO        FAIR      40  14  34 W8        29.95F WCI  34
GILLETTE         N/A    N/A N/A N/A MISG      29.94F
HULETT         FAIR      36  21  55 SW12      29.95F WCI  27
NEWCASTLE      FAIR      21  16  79 CALM      30.02F

$$
WYZ014>020-022>026-101>103-181200-
CENTRAL WYOMING

CITY           SKY/WX    TMP DP  RH WIND       PRES   REMARKS
BIG PINEY      FAIR      15  12  88 CALM      30.24F
PINEDALE       FAIR      12  10  92 NW7       30.24F WCI   2
DUBOIS         FAIR      28  14  54 NW20      30.15F WCI  15
LANDER         FAIR      18  14  84 N3        30.11F
RIVERTON       FAIR      16  10  77 CALM      30.12F
CASPER         FAIR      36  22  56 SW22G32   30.08F WCI  25
DOUGLAS        FAIR      35  21  56 W7        30.05F WCI  29

$$
WYZ021-027>030-104>119-181200-
SOUTHERN WYOMING

CITY           SKY/WX    TMP DP  RH WIND       PRES   REMARKS
EVANSTON       FAIR      28  22  78 S9        30.25F WCI  19
FORT BRIDGER   FAIR      31  16  54 SW6       30.28F WCI  25
ROCK SPRINGS   FAIR      28  22  78 SW8       30.24F WCI  20
DIXON            N/A     19  13  79 CALM      30.32S
RAWLINS        FAIR      28  18  66 W9        30.23F WCI  19
SARATOGA       FAIR      27  18  69 SE10      30.24F WCI  17
LARAMIE        FAIR      27  15  61 SW16      30.15F WCI  15
CHEYENNE       FAIR      36  13  38 SW7       30.08F WCI  30
TORRINGTON     FAIR      26  20  77 N3        30.04F

$$




USA.gov is the U.S. government's official web portal to all federal, state and local government web resources and services.